Location: Unspecified
(0.0000°N, 0.0000°E)
Time: 01:29:44
(UTC+00:00)

S-56A Canister/Altair - Pass Details

Date: 24 November 2019
Orbit: 633 x 2499 km, 38.9° (Epoch: 10 December)

Event Time Altitude Azimuth Distance (km) Brightness Sun altitude
Rises 10:10:25 0° 215° (SW) 5,619 12.0 58.8°
Reaches altitude 10° 10:14:06 10° 209° (SSW) 4,802 11.8 59.5°
Maximum altitude 10:27:38 48° 139° (SE) 3,033 12.7 61.8°
Drops below altitude 10° 10:41:30 10° 69° (ENE) 4,949 11.9 64.0°
Sets 10:45:18 0° 64° (ENE) 5,801 12.1 64.6°
